• In Uzbekistan
  • List of Countries
  • For 7 days
  • Water Temperature
  • Satellite Maps
  • Weather Map
  • Weather Widgets
  • user-avatar
    Login

    Hourly Weather Krasnyy Pahar

    Today, 20 July, Friday

    Time Temperature Precipitation Wind Pressure Humidity
    00:00 +19°C° 0.1 mm 3 mps 739 mmHg 93%
    01:00 +19°C° 0 mm 3 mps 740 mmHg 94%
    02:00 +19°C° 0 mm 3 mps 740 mmHg 94%
    03:00 +19°C° 0 mm 3 mps 740 mmHg 95%
    04:00 +19°C° 0 mm 3 mps 740 mmHg 94%
    05:00 +19°C° 0 mm 3 mps 740 mmHg 93%
    06:00 +20°C° 0 mm 3 mps 740 mmHg 92%
    07:00 +21°C° 0.1 mm 3 mps 740 mmHg 86%
    08:00 +24°C° 0.1 mm 3 mps 741 mmHg 81%
    09:00 +26°C° 0.1 mm 3 mps 741 mmHg 76%
    10:00 +26°C° 0.5 mm 3 mps 741 mmHg 72%
    11:00 +27°C° 0.5 mm 3 mps 741 mmHg 69%
    12:00 +28°C° 0.5 mm 3 mps 741 mmHg 65%
    13:00 +29°C° 0.4 mm 3 mps 741 mmHg 63%
    14:00 +29°C° 0.4 mm 3 mps 741 mmHg 61%
    15:00 +30°C° 0.4 mm 3 mps 741 mmHg 59%
    16:00 +29°C° 0.7 mm 3 mps 740 mmHg 66%
    17:00 +28°C° 0.7 mm 3 mps 740 mmHg 72%
    18:00 +27°C° 0.7 mm 3 mps 740 mmHg 78%
    19:00 +26°C° 0.2 mm 2 mps 740 mmHg 83%
    20:00 +24°C° 0.2 mm 2 mps 740 mmHg 87%
    21:00 +23°C° 0.2 mm 2 mps 741 mmHg 91%
    22:00 +21°C° 0 mm 2 mps 740 mmHg 92%
    23:00 +21°C° 0 mm 2 mps 740 mmHg 93%

    Tomorrow, 21 July, Saturday

    Time Temperature Precipitation Wind Pressure Humidity
    00:00 +20°C° 0 mm 2 mps 740 mmHg 93%
    01:00 +20°C° 0.1 mm 2 mps 740 mmHg 94%
    02:00 +20°C° 0.1 mm 2 mps 740 mmHg 94%
    03:00 +19°C° 0.1 mm 2 mps 740 mmHg 95%
    04:00 +20°C° 0.1 mm 2 mps 740 mmHg 95%
    05:00 +20°C° 0.1 mm 2 mps 740 mmHg 94%
    06:00 +20°C° 0.1 mm 2 mps 740 mmHg 94%
    07:00 +22°C° 0.3 mm 3 mps 740 mmHg 90%
    08:00 +24°C° 0.3 mm 3 mps 740 mmHg 86%
    09:00 +25°C° 0.3 mm 3 mps 740 mmHg 81%
    10:00 +27°C° 0.8 mm 3 mps 740 mmHg 76%
    11:00 +28°C° 0.8 mm 4 mps 740 mmHg 71%
    12:00 +29°C° 0.8 mm 4 mps 740 mmHg 66%
    13:00 +29°C° 0.5 mm 4 mps 740 mmHg 67%
    14:00 +29°C° 0.5 mm 4 mps 740 mmHg 68%
    15:00 +29°C° 0.5 mm 5 mps 740 mmHg 69%
    16:00 +28°C° 0.5 mm 4 mps 740 mmHg 72%
    17:00 +27°C° 0.5 mm 4 mps 740 mmHg 76%
    18:00 +27°C° 0.5 mm 4 mps 740 mmHg 79%
    19:00 +26°C° 0.2 mm 4 mps 740 mmHg 83%
    20:00 +25°C° 0.2 mm 3 mps 740 mmHg 88%
    21:00 +22°C° 0.2 mm 3 mps 740 mmHg 92%
    22:00 +22°C° 0.1 mm 3 mps 740 mmHg 93%
    23:00 +21°C° 0.1 mm 3 mps 740 mmHg 95%

    Day after tomorrow, 22 July, Sunday

    Time Temperature Precipitation Wind Pressure Humidity
    00:00 +21°C° 0.1 mm 3 mps 740 mmHg 96%
    01:00 +21°C° 0 mm 3 mps 740 mmHg 96%
    02:00 +20°C° 0 mm 3 mps 740 mmHg 96%
    03:00 +20°C° 0 mm 3 mps 740 mmHg 97%
    04:00 +20°C° 0.1 mm 3 mps 740 mmHg 96%
    05:00 +20°C° 0.1 mm 3 mps 741 mmHg 95%
    06:00 +20°C° 0.1 mm 3 mps 741 mmHg 94%
    07:00 +21°C° 0.1 mm 4 mps 741 mmHg 91%
    08:00 +22°C° 0.1 mm 4 mps 741 mmHg 89%
    09:00 +23°C° 0.1 mm 4 mps 741 mmHg 86%
    10:00 +25°C° 0.2 mm 4 mps 741 mmHg 82%
    11:00 +26°C° 0.2 mm 4 mps 741 mmHg 79%
    12:00 +27°C° 0.2 mm 4 mps 741 mmHg 76%
    13:00 +27°C° 0.4 mm 5 mps 741 mmHg 76%
    14:00 +26°C° 0.4 mm 5 mps 741 mmHg 77%
    15:00 +26°C° 0.4 mm 5 mps 741 mmHg 78%
    16:00 +26°C° 0.2 mm 5 mps 741 mmHg 79%
    17:00 +26°C° 0.2 mm 5 mps 741 mmHg 81%
    18:00 +25°C° 0.2 mm 4 mps 741 mmHg 83%
    19:00 +23°C° 0 mm 4 mps 741 mmHg 85%
    20:00 +23°C° 0 mm 4 mps 741 mmHg 87%
    21:00 +22°C° 0 mm 4 mps 741 mmHg 88%
    22:00 +22°C° 0.1 mm 4 mps 741 mmHg 90%
    23:00 +21°C° 0.1 mm 4 mps 741 mmHg 92%

    23 July, Monday

    Time Temperature Precipitation Wind Pressure Humidity
    00:00 +21°C° 0.1 mm 3 mps 741 mmHg 94%
    01:00 +20°C° 0.1 mm 3 mps 741 mmHg 95%
    02:00 +20°C° 0.1 mm 3 mps 741 mmHg 96%
    03:00 +20°C° 0.1 mm 3 mps 741 mmHg 97%
    04:00 +20°C° 0.3 mm 3 mps 741 mmHg 96%
    05:00 +20°C° 0.3 mm 4 mps 741 mmHg 95%
    06:00 +21°C° 0.3 mm 4 mps 741 mmHg 95%
    07:00 +22°C° 0.6 mm 4 mps 741 mmHg 92%
    08:00 +23°C° 0.6 mm 4 mps 741 mmHg 89%
    09:00 +25°C° 0.6 mm 4 mps 742 mmHg 86%
    10:00 +25°C° 1.7 mm 4 mps 742 mmHg 84%
    11:00 +26°C° 1.7 mm 4 mps 742 mmHg 83%
    12:00 +26°C° 1.7 mm 4 mps 742 mmHg 81%
    13:00 +27°C° 0.8 mm 4 mps 742 mmHg 80%
    14:00 +27°C° 0.8 mm 4 mps 742 mmHg 79%
    15:00 +27°C° 0.8 mm 4 mps 742 mmHg 79%
    16:00 +27°C° 0.8 mm 4 mps 742 mmHg 80%
    17:00 +26°C° 0.8 mm 4 mps 742 mmHg 81%
    18:00 +26°C° 0.8 mm 4 mps 743 mmHg 83%
    19:00 +25°C° 0.5 mm 4 mps 743 mmHg 86%
    20:00 +23°C° 0.5 mm 4 mps 743 mmHg 89%
    21:00 +22°C° 0.5 mm 4 mps 743 mmHg 92%
    22:00 +21°C° 0 mm 3 mps 743 mmHg 93%
    23:00 +21°C° 0 mm 3 mps 743 mmHg 94%

    24 July, Tuesday

    Time Temperature Precipitation Wind Pressure Humidity
    00:00 +21°C° 0 mm 3 mps 744 mmHg 95%
    01:00 +20°C° 1 mm 3 mps 744 mmHg 96%
    02:00 +20°C° 1 mm 3 mps 744 mmHg 96%
    03:00 +20°C° 1 mm 3 mps 744 mmHg 96%
    04:00 +20°C° 0.2 mm 3 mps 744 mmHg 95%
    05:00 +20°C° 0.2 mm 3 mps 744 mmHg 95%
    06:00 +20°C° 0.2 mm 3 mps 744 mmHg 95%
    07:00 +22°C° 0.2 mm 3 mps 745 mmHg 90%
    08:00 +24°C° 0.2 mm 3 mps 745 mmHg 86%
    09:00 +25°C° 0.2 mm 3 mps 745 mmHg 82%
    10:00 +26°C° 0.9 mm 3 mps 745 mmHg 78%
    11:00 +27°C° 0.9 mm 3 mps 745 mmHg 74%
    12:00 +28°C° 0.9 mm 3 mps 745 mmHg 70%
    13:00 +28°C° 0.9 mm 3 mps 745 mmHg 73%
    14:00 +28°C° 0.9 mm 3 mps 745 mmHg 75%
    15:00 +27°C° 0.9 mm 3 mps 746 mmHg 77%
    16:00 +26°C° 0.6 mm 3 mps 746 mmHg 80%
    17:00 +26°C° 0.6 mm 3 mps 746 mmHg 83%
    18:00 +25°C° 0.6 mm 3 mps 746 mmHg 86%
    19:00 +24°C° 0.1 mm 3 mps 746 mmHg 87%
    20:00 +22°C° 0.1 mm 3 mps 747 mmHg 89%
    21:00 +23°C° 0.1 mm 2 mps 747 mmHg 90%
    22:00 +21°C° 0.1 mm 2 mps 747 mmHg 89%
    23:00 +21°C° 0.1 mm 2 mps 747 mmHg 89%

    25 July, Wednesday

    Time Temperature Precipitation Wind Pressure Humidity
    00:00 +20°C° 0.1 mm 2 mps 747 mmHg 88%
    01:00 +20°C° 0 mm 2 mps 747 mmHg 87%
    02:00 +20°C° 0 mm 2 mps 747 mmHg 86%
    03:00 +19°C° 0 mm 2 mps 747 mmHg 85%
    04:00 +19°C° 0 mm 3 mps 748 mmHg 83%
    05:00 +19°C° 0 mm 3 mps 748 mmHg 81%
    06:00 +19°C° 0 mm 3 mps 748 mmHg 79%
    07:00 +20°C° 0 mm 4 mps 748 mmHg 75%
    08:00 +20°C° 0 mm 4 mps 748 mmHg 71%
    09:00 +21°C° 0 mm 5 mps 748 mmHg 67%
    10:00 +21°C° 0 mm 6 mps 748 mmHg 65%
    11:00 +22°C° 0 mm 6 mps 748 mmHg 63%
    12:00 +23°C° 0 mm 7 mps 748 mmHg 61%
    13:00 +23°C° 0 mm 7 mps 748 mmHg 63%
    14:00 +23°C° 0 mm 6 mps 748 mmHg 65%
    15:00 +23°C° 0 mm 6 mps 748 mmHg 67%
    16:00 +23°C° 0 mm 6 mps 748 mmHg 67%
    17:00 +23°C° 0 mm 6 mps 748 mmHg 67%
    18:00 +24°C° 0 mm 6 mps 748 mmHg 68%
    19:00 +23°C° 0 mm 6 mps 748 mmHg 68%
    20:00 +22°C° 0 mm 5 mps 748 mmHg 69%
    21:00 +21°C° 0 mm 5 mps 748 mmHg 70%
    22:00 +20°C° 0 mm 5 mps 749 mmHg 68%
    23:00 +20°C° 0 mm 4 mps 749 mmHg 66%
    Show more